This is the latest recevied weather packets stored in our database for station/object DL3SDW-13. If no packets are shown the sender has not sent any weather packets the latest 10 day(s).
| Time | Temp. | Humidity | Pressure | Rain* | Wind** | Luminosity | Snow |
|---|---|---|---|---|---|---|---|
| 1777463020 | 24.44° C | 29% | 1025 hPa | - | - | - | - |
| 1777448103 | 19.44° C | 27% | 1025 hPa | - | - | - | - |
| 1777440649 | 22.22° C | 25% | 1025 hPa | - | - | - | - |
| 1777433191 | 22.22° C | 25% | 1024 hPa | - | - | - | - |
| 1777425739 | 23.33° C | 26% | 1023 hPa | - | - | - | - |
| 1777418279 | 23.33° C | 26% | 1023 hPa | - | - | - | - |
| 1777410822 | 26.11° C | 28% | 1022 hPa | - | - | - | - |
| 1777403365 | 25° C | 30% | 1021 hPa | - | - | - | - |
| 1777395911 | 25° C | 25% | 1020 hPa | - | - | - | - |
| 1777380996 | 25° C | 27% | 1020 hPa | - | - | - | - |
| 1777373540 | 24.44° C | 28% | 1021 hPa | - | - | - | - |
| 1777366087 | 24.44° C | 31% | 1021 hPa | - | - | - | - |
| 1777358627 | 24.44° C | 32% | 1021 hPa | - | - | - | - |
| 1777351173 | 23.89° C | 33% | 1021 hPa | - | - | - | - |
| 1777343715 | 23.89° C | 32% | 1021 hPa | - | - | - | - |
| 1777336258 | 23.89° C | 31% | 1021 hPa | - | - | - | - |
| 1777328802 | 23.89° C | 31% | 1021 hPa | - | - | - | - |
| 1777321345 | 24.44° C | 30% | 1022 hPa | - | - | - | - |
| 1777313890 | 24.44° C | 29% | 1022 hPa | - | - | - | - |
| 1777306432 | 24.44° C | 28% | 1022 hPa | - | - | - | - |
| 1777298976 | 23.89° C | 30% | 1023 hPa | - | - | - | - |
| 1777276611 | 22.78° C | 31% | 1026 hPa | - | - | - | - |
| 1777269152 | 22.22° C | 33% | 1026 hPa | - | - | - | - |
| 1777261694 | 22.22° C | 28% | 1025 hPa | - | - | - | - |
| 1777254241 | 23.33° C | 28% | 1025 hPa | - | - | - | - |
* Rain since midnight (hover to see other rain measurements)
** Current wind speed in m/s (hover to see current wind gust speed)